Wind_Speed
20 21 22 22 22 22 21 21 21 21 20 21 21 21 21 22 22 22 23 23 23 23 23 23 23 22 22 22 22 23 23 23 22 23 23 22 22 23
22 24 24 24 24 23 23 23 23 23 22 22 22 23 23 23 24 25 25 25 25 25 25 24 24 24 23 23 23 23 24 24 24 24 24 24 24 24
24 24 25 25 25 24 24 25 25 25 24 24 24 25 25 25 25 26 26 26 26 26 26 25 25 25 25 25 24 24 25 25 25 25 25 26 26 26
25 25 26 26 26 25 25 26 26 26 26 26 26 26 26 26 27 27 27 27 27 27 27 27 27 26 26 26 26 26 26 27 27 27 27 27 26 26
25 26 26 27 26 26 27 27 27 27 27 28 28 27 27 27 28 27 27 27 27 27 27 27 27 27 27 27 27 27 28 28 28 29 29 28 28 28
26 27 28 27 28 28 28 29 29 28 29 29 29 28 28 28 28 28 27 27 27 28 27 27 27 27 27 27 28 28 28 28 29 29 30 30 30 29
28 28 29 29 29 29 29 29 29 30 30 29 28 28 28 28 28 29 29 29 28 28 28 28 28 28 28 28 28 28 28 29 29 29 30 30 30 30
30 30 30 31 31 31 31 31 31 30 30 29 28 28 28 29 30 30 30 30 29 29 29 28 28 28 29 29 29 29 29 29 29 29 29 30 30 31
31 31 32 32 32 31 31 31 31 30 30 30 30 29 29 30 30 31 31 31 30 30 30 29 29 29 29 30 30 30 30 30 30 30 30 30 30 30
32 32 32 32 32 31 31 31 31 31 31 31 31 31 31 31 31 31 31 31 30 31 31 30 30 30 30 31 31 31 31 31 31 31 30 31 31 31
33 33 33 33 33 32 32 31 31 31 31 31 31 32 32 32 32 32 32 32 31 31 31 31 31 31 31 31 32 32 32 32 32 32 31 31 31 32
33 33 33 32 32 32 32 32 32 32 33 33 33 33 33 33 33 33 33 32 32 31 31 31 32 32 31 32 32 32 32 32 32 32 32 32 32 33
33 32 32 33 33 34 33 33 33 33 33 33 33 33 34 34 34 33 33 32 32 31 31 31 31 31 31 32 32 33 33 33 32 32 32 32 32 32
33 33 33 33 33 33 33 33 34 34 34 34 34 34 34 34 34 34 33 33 32 32 32 32 31 31 31 31 31 32 32 33 32 32 32 32 32 32
33 34 34 34 33 32 33 33 34 35 35 35 35 35 35 35 35 33 32 32 32 31 32 32 32 31 31 31 31 31 32 32 33 33 32 32 31 31
33 33 33 33 33 33 33 33 34 34 34 34 34 33 34 33 33 32 32 32 31 31 32 32 31 31 30 31 31 31 31 31 31 32 32 32 32 32
33 32 32 32 33 33 33 33 33 34 34 33 33 33 32 32 32 31 31 31 31 31 31 31 30 30 30 30 30 30 30 31 31 32 31 30 29 30
32 32 32 32 32 32 32 32 32 32 32 32 32 31 31 31 30 30 29 30 30 30 30 29 29 29 30 30 29 29 30 30 31 31 30 29 28 27
32 32 31 31 31 31 31 31 31 30 30 30 30 30 30 29 29 28 29 29 29 29 29 28 29 29 29 29 28 28 28 28 27 27 27 27 26 26
31 31 30 30 30 30 29 29 28 28 27 28 28 28 28 28 27 27 27 28 28 28 28 28 28 28 28 28 27 26 26 26 26 25 25 25 25 24
30 30 30 29 29 29 28 27 27 27 26 27 27 27 26 27 27 27 27 27 27 28 27 27 27 27 27 27 26 25 24 24 24 24 24 24 23 23
28 28 29 29 29 28 28 28 27 27 27 26 26 26 26 27 27 27 27 27 27 27 27 27 27 27 27 26 25 23 22 22 23 23 23 22 22 22
28 28 27 27 28 27 28 27 27 27 27 27 26 26 26 27 27 27 27 26 25 25 25 26 26 26 26 26 26 24 23 22 22 22 21 21 21 21
Wind_Direction
293 296 297 296 296 293 293 295 293 290 289 288 287 287 286 285 286 285 283 282 282 282 282 281 281 279 279 277 275 274 273 272 271 269 268 268 268 265
292 293 294 294 294 294 292 291 292 291 289 289 288 286 287 285 284 285 283 281 281 281 280 280 279 277 277 276 275 275 273 271 271 270 268 268 267 266
292 292 293 294 292 291 291 291 291 289 289 290 289 287 285 285 285 285 283 281 281 280 279 278 278 276 275 275 275 275 274 272 272 272 270 269 268 266
293 293 293 293 291 290 291 290 289 287 287 287 287 286 286 286 285 285 283 282 281 280 278 277 277 276 275 275 275 276 276 274 271 270 271 270 268 266
292 292 292 292 292 291 290 290 288 286 287 288 287 286 285 286 286 286 283 283 282 281 279 278 277 275 275 275 275 274 275 275 273 270 270 269 268 267
292 293 292 291 292 292 290 289 288 287 288 288 287 286 285 285 284 284 284 284 283 282 280 279 277 275 274 274 275 275 273 275 274 270 269 269 268 268
292 292 292 292 292 291 290 289 288 288 288 287 286 286 286 285 285 283 282 283 283 282 280 279 277 276 276 275 274 274 273 273 273 270 268 267 267 267
290 290 291 291 291 289 288 288 288 288 288 287 287 286 285 284 286 285 282 282 282 280 279 279 277 276 275 274 274 274 273 272 272 271 269 267 267 267
288 289 289 289 289 290 287 287 287 287 287 286 286 286 286 284 285 286 285 284 282 280 279 279 277 275 274 275 274 275 274 271 271 272 271 270 269 268
287 288 288 288 289 288 287 286 287 286 285 285 286 286 286 285 285 286 286 285 284 282 280 279 278 276 275 275 275 275 274 271 271 271 271 269 269 268
288 289 288 288 288 288 287 287 287 286 285 285 285 285 285 284 285 285 286 285 284 283 281 280 278 277 276 274 274 274 272 271 271 271 270 269 268 268
290 289 290 289 288 288 287 286 285 285 284 284 285 285 284 283 284 284 286 286 285 282 281 280 279 277 276 275 275 274 271 271 271 270 270 269 270 269
291 291 291 290 289 288 287 287 286 285 285 286 285 285 285 283 283 284 285 285 284 282 281 281 279 278 277 276 275 274 272 271 272 271 270 271 271 269
291 291 291 291 290 288 287 287 287 287 286 286 285 285 286 285 284 285 285 284 283 281 280 280 278 278 279 278 277 276 273 272 271 271 270 271 271 269
290 291 291 291 290 288 288 288 288 288 287 286 285 285 285 285 286 286 284 283 282 281 280 279 278 278 278 279 277 276 275 273 272 270 270 270 271 269
289 289 290 291 290 289 289 288 288 287 287 286 284 285 286 285 285 285 284 282 281 280 280 278 278 278 279 279 277 276 275 273 271 269 269 270 269 268
289 289 289 290 290 290 291 290 289 289 288 286 286 285 285 285 285 284 283 283 282 281 280 278 277 278 279 280 279 277 276 274 271 269 270 270 269 267
290 290 290 290 290 290 291 290 289 289 289 288 286 285 284 284 284 283 283 284 283 282 281 280 278 277 279 280 280 278 277 275 272 271 270 269 268 266
292 292 291 290 290 291 291 290 291 291 290 289 288 286 285 284 283 283 285 285 283 282 281 280 279 278 279 279 279 278 277 275 272 269 269 269 267 265
292 292 292 291 291 290 290 291 291 292 292 291 289 287 284 284 283 283 284 286 284 282 281 281 279 277 278 279 281 279 276 273 271 269 268 268 265 264
292 292 292 292 291 291 290 290 291 291 292 292 290 287 285 283 284 284 284 285 283 283 282 282 280 279 279 279 281 279 274 271 270 268 267 267 265 263
292 292 291 292 291 291 291 290 290 291 292 292 290 288 286 285 284 284 285 284 284 283 282 281 280 279 277 277 279 276 272 269 266 264 265 265 263 261
292 292 292 293 293 292 292 291 291 290 291 291 290 288 287 287 285 285 284 285 285 285 283 281 280 279 277 276 277 276 272 268 267 264 262 260 257 255
Height
5863 5862 5859 5857 5855 5854 5852 5850 5849 5847 5845 5844 5842 5840 5839 5837 5836 5835 5833 5832 5830 5829 5828 5827 5826 5825 5824 5824 5823 5822 5822 5822 5822 5822 5822 5823 5823 5823
5858 5856 5854 5852 5850 5848 5846 5844 5843 5841 5839 5838 5836 5835 5833 5831 5830 5828 5827 5825 5824 5822 5821 5820 5819 5818 5817 5817 5816 5816 5815 5815 5815 5815 5815 5816 5816 5816
5852 5850 5848 5846 5844 5842 5840 5838 5836 5835 5833 5831 5829 5828 5826 5824 5823 5821 5819 5818 5817 5815 5814 5813 5812 5811 5811 5810 5809 5809 5808 5808 5808 5807 5807 5808 5808 5809
5846 5844 5842 5840 5837 5836 5834 5832 5830 5828 5826 5824 5822 5821 5819 5817 5815 5814 5812 5810 5809 5808 5807 5805 5804 5803 5803 5802 5802 5801 5801 5800 5800 5800 5800 5800 5800 5800
5839 5837 5835 5833 5831 5829 5827 5825 5823 5821 5819 5817 5815 5813 5811 5809 5808 5806 5804 5802 5801 5799 5798 5797 5796 5795 5795 5794 5794 5793 5793 5792 5792 5792 5791 5791 5792 5792
5832 5830 5828 5826 5824 5822 5819 5817 5815 5813 5811 5809 5807 5805 5803 5801 5799 5798 5797 5795 5793 5791 5790 5789 5788 5787 5786 5786 5785 5785 5784 5784 5783 5783 5783 5783 5783 5783
5825 5823 5821 5819 5816 5814 5812 5810 5807 5805 5803 5801 5799 5797 5795 5793 5792 5790 5789 5787 5785 5783 5782 5781 5780 5779 5778 5777 5776 5776 5775 5775 5774 5774 5774 5774 5774 5774
5817 5815 5813 5810 5808 5806 5804 5801 5799 5797 5795 5793 5791 5789 5787 5785 5783 5781 5780 5778 5777 5776 5774 5772 5771 5770 5769 5768 5768 5767 5766 5766 5765 5765 5765 5765 5765 5765
5808 5806 5804 5802 5799 5797 5795 5793 5791 5788 5786 5784 5782 5780 5779 5777 5775 5773 5771 5769 5767 5766 5764 5763 5762 5761 5760 5760 5759 5758 5757 5757 5756 5756 5756 5756 5756 5756
5800 5797 5795 5793 5790 5788 5786 5783 5781 5779 5778 5776 5774 5772 5770 5768 5766 5764 5761 5759 5758 5756 5755 5754 5753 5752 5751 5750 5749 5748 5748 5747 5747 5747 5747 5746 5746 5746
5791 5788 5786 5784 5781 5779 5777 5774 5772 5770 5768 5766 5764 5762 5760 5758 5756 5754 5752 5750 5749 5747 5746 5745 5743 5742 5741 5741 5739 5739 5738 5737 5737 5737 5737 5737 5736 5736
5781 5779 5777 5774 5772 5769 5767 5765 5763 5761 5759 5757 5754 5752 5750 5748 5746 5744 5742 5740 5739 5737 5736 5735 5733 5732 5731 5731 5729 5728 5728 5727 5727 5727 5727 5727 5726 5725
5772 5769 5767 5765 5762 5760 5757 5755 5753 5751 5749 5746 5744 5742 5740 5738 5736 5734 5732 5730 5729 5727 5726 5724 5723 5722 5721 5720 5720 5718 5717 5717 5717 5717 5716 5716 5716 5715
5763 5760 5758 5755 5752 5750 5747 5745 5743 5740 5738 5736 5734 5732 5730 5728 5726 5724 5722 5720 5718 5717 5715 5714 5713 5712 5710 5710 5709 5708 5707 5707 5707 5707 5706 5706 5706 5705
5753 5751 5748 5745 5742 5740 5738 5735 5733 5730 5728 5725 5723 5721 5719 5717 5716 5714 5712 5710 5708 5706 5705 5704 5702 5701 5700 5699 5699 5698 5697 5696 5696 5696 5696 5696 5696 5696
5743 5741 5738 5735 5733 5730 5727 5725 5722 5720 5717 5715 5713 5711 5709 5707 5705 5703 5701 5699 5698 5697 5695 5693 5692 5691 5690 5689 5688 5687 5686 5686 5685 5685 5685 5685 5685 5685
5733 5731 5728 5725 5723 5720 5717 5715 5712 5710 5707 5705 5703 5701 5699 5697 5695 5693 5691 5689 5687 5686 5685 5683 5682 5681 5680 5679 5678 5677 5676 5675 5674 5674 5674 5675 5675 5675
5723 5721 5718 5715 5713 5710 5708 5705 5702 5699 5697 5695 5692 5690 5688 5687 5685 5683 5681 5679 5677 5676 5674 5674 5673 5672 5671 5670 5668 5667 5666 5665 5665 5665 5664 5665 5665 5665
5713 5711 5708 5705 5703 5700 5698 5695 5692 5690 5687 5684 5682 5680 5678 5677 5675 5673 5672 5670 5668 5667 5665 5664 5663 5662 5662 5661 5659 5658 5657 5656 5656 5656 5655 5655 5656 5656
5704 5701 5698 5696 5693 5691 5688 5685 5683 5680 5678 5675 5673 5671 5669 5667 5666 5664 5663 5661 5659 5657 5656 5655 5654 5653 5652 5652 5650 5649 5648 5648 5648 5648 5647 5647 5647 5648
5694 5691 5689 5687 5684 5682 5679 5677 5674 5672 5669 5667 5664 5662 5661 5659 5657 5656 5654 5652 5650 5649 5647 5646 5645 5644 5643 5643 5642 5641 5640 5640 5639 5640 5640 5640 5640 5641
5685 5682 5680 5677 5675 5673 5670 5668 5665 5663 5661 5659 5656 5654 5652 5650 5649 5647 5645 5643 5641 5640 5638 5638 5637 5636 5635 5635 5634 5634 5633 5633 5632 5632 5633 5634 5634 5635
5676 5673 5671 5668 5666 5663 5661 5659 5657 5655 5653 5651 5648 5646 5644 5642 5640 5638 5637 5635 5633 5632 5631 5630 5629 5628 5627 5627 5626 5626 5626 5626 5626 5626 5627 5627 5628 5629